Wind_Speed
58 60 61 63 65 67 69 71 73 73 71 71 72 74 75 77 78 79 80 81 82 83 84 84 84 85 85 86 86 87 87 88 88 88 88 88 88 88
60 62 63 65 67 68 70 72 74 76 76 75 76 78 79 80 80 81 81 81 82 82 82 82 82 82 82 82 81 81 81 81 81 81 82 82 83 84
62 63 65 67 68 70 72 73 75 77 79 77 79 80 82 82 82 82 82 82 81 80 79 78 77 76 75 74 72 71 71 71 71 72 73 74 75 77
63 65 67 68 70 72 74 75 77 79 81 80 79 81 82 83 83 82 81 80 77 75 73 71 69 68 66 65 63 63 62 62 62 63 64 66 67 68
65 67 69 71 72 74 76 77 79 81 82 83 81 81 82 82 81 79 77 74 71 68 66 64 61 60 58 57 56 55 55 55 55 56 56 57 59 61
68 69 71 73 75 77 78 80 81 82 83 83 82 81 80 77 76 73 70 66 64 61 59 56 54 52 51 50 50 50 50 50 50 51 51 53 54 55
70 72 74 76 78 79 81 81 82 82 82 81 80 77 73 70 67 65 62 58 56 54 52 50 49 47 46 47 47 46 46 46 46 47 48 49 50 51
72 74 76 78 80 81 82 82 82 81 80 77 74 70 65 62 59 57 54 52 49 47 47 45 45 44 44 44 44 44 44 44 44 44 45 46 47 48
75 78 79 80 81 81 80 79 78 77 74 71 66 61 58 55 53 50 49 47 44 42 42 40 41 41 42 42 42 42 42 42 42 42 43 44 45 45
78 80 81 80 80 80 79 76 73 69 66 63 59 55 52 49 48 46 44 42 40 38 39 37 37 39 40 40 41 40 41 41 41 40 41 41 41 41
80 80 80 80 79 77 75 71 66 61 58 56 53 50 48 46 45 43 41 40 37 36 37 37 36 37 36 37 38 39 39 39 39 39 39 38 38 38
79 78 78 77 74 71 68 64 60 55 53 50 48 46 44 43 42 41 39 38 36 35 35 36 35 35 34 35 37 37 37 37 37 37 36 36 35 35
78 77 75 73 68 65 62 58 55 51 48 46 43 41 40 39 38 38 37 36 35 34 34 34 33 34 33 32 34 35 36 35 35 34 34 33 33 33
77 75 71 67 62 59 56 53 51 48 45 43 40 38 37 36 35 35 35 34 34 33 33 33 32 32 31 31 31 32 33 33 33 32 31 31 31 31
75 71 66 61 57 53 51 49 47 45 42 40 37 35 35 34 33 33 33 33 32 32 32 31 30 29 29 29 29 30 30 30 30 30 30 30 30 31
70 65 60 55 52 50 47 45 44 41 39 36 34 33 32 31 31 31 30 30 30 31 31 30 29 29 28 28 27 27 28 28 28 28 28 29 30 30
65 59 54 50 47 45 42 41 39 37 35 33 32 30 29 29 29 29 29 29 29 29 29 29 29 28 27 27 26 26 26 26 27 27 27 27 27 29
60 54 50 47 43 40 38 36 35 34 32 31 30 29 28 27 28 28 28 28 28 28 28 28 28 27 26 25 25 25 25 26 26 26 26 26 26 27
55 50 46 43 39 36 35 33 32 32 31 30 29 28 27 27 27 27 28 27 27 27 27 27 26 26 25 24 24 24 24 24 24 25 25 26 27 27
50 46 42 39 36 34 33 32 31 30 29 29 28 28 27 27 27 27 27 27 26 26 26 26 26 25 24 24 24 24 24 23 24 25 25 25 26 26
45 42 38 36 34 32 31 30 29 29 28 28 28 28 28 27 27 27 27 27 26 26 25 25 25 24 24 23 23 24 25 24 24 24 25 25 26 26
41 37 35 33 32 31 30 29 28 28 28 28 28 28 27 27 27 27 26 26 25 25 25 25 24 24 23 23 23 23 24 24 24 24 24 25 26 26
37 34 33 31 31 30 29 28 28 27 27 27 27 27 26 26 26 26 26 25 25 25 25 25 25 24 24 24 23 23 24 24 25 25 25 26 26 26
Wind_Direction
291 292 292 292 292 292 292 292 291 290 289 289 289 289 288 288 287 286 285 284 283 282 280 279 277 276 274 273 271 270 268 267 266 264 263 261 260 258
292 292 293 293 293 294 293 293 293 293 292 292 291 291 291 290 289 288 287 286 285 283 282 280 279 277 276 274 273 271 269 267 266 264 262 261 259 257
293 294 295 295 295 295 295 295 295 295 294 293 293 293 292 292 291 290 289 287 286 284 283 281 280 278 277 275 273 271 269 267 265 264 262 261 259 257
296 296 296 296 297 297 297 297 297 296 296 295 294 294 294 293 292 290 289 288 286 284 283 281 280 278 276 274 272 270 268 267 266 264 262 260 259 257
297 298 298 298 298 298 298 298 298 297 297 297 296 295 294 293 291 290 288 286 285 283 282 280 278 276 274 272 270 269 268 267 266 264 263 261 259 257
300 300 300 300 300 300 299 299 298 298 298 297 297 296 294 292 290 289 287 285 284 283 281 279 276 274 272 270 268 267 267 266 265 264 263 261 260 258
301 301 302 302 302 301 300 300 299 299 298 298 297 295 294 291 289 287 286 284 283 281 279 277 275 273 271 269 268 267 266 266 265 265 264 262 261 258
303 303 303 303 302 302 301 301 301 300 299 298 297 295 293 290 288 287 285 283 281 279 277 275 274 273 271 269 268 268 267 266 266 265 265 264 262 259
305 305 304 304 303 302 301 301 300 300 299 298 296 295 293 290 288 286 284 283 281 278 275 272 272 271 271 271 271 270 268 267 266 266 266 265 262 258
306 306 305 304 303 302 301 301 300 299 297 296 295 294 292 290 288 286 284 282 280 278 275 273 270 270 271 272 271 270 269 268 267 267 266 265 261 256
307 306 306 305 304 303 301 300 299 297 295 294 294 293 291 289 288 286 285 283 280 277 276 274 272 271 271 270 270 270 270 269 268 267 266 263 259 252
308 307 306 306 304 302 301 300 298 296 294 293 292 291 290 288 287 286 285 283 280 278 276 275 274 272 270 269 269 269 269 269 268 268 266 261 255 250
308 308 307 305 303 301 300 299 298 296 295 293 291 289 287 286 285 285 285 284 282 280 278 276 274 272 271 269 268 269 269 268 267 267 264 259 254 250
309 308 307 304 302 300 299 298 297 296 295 293 292 289 287 285 285 285 284 283 283 282 280 277 275 273 272 270 268 268 269 268 266 264 261 256 252 249
309 308 306 303 301 299 298 297 296 295 293 292 290 289 287 286 285 284 283 282 282 282 280 278 276 275 273 272 270 268 267 266 265 262 259 255 251 248
307 306 304 302 300 299 298 296 295 293 292 290 289 288 287 286 285 285 283 283 283 282 281 278 277 276 275 274 271 268 266 264 262 260 258 254 250 247
306 305 303 300 299 298 297 296 294 293 291 290 289 289 287 287 287 286 285 285 284 282 280 279 278 276 276 275 272 269 266 263 261 259 256 253 250 246
306 305 303 300 299 297 295 294 292 291 290 289 289 288 288 288 288 288 287 287 285 284 282 279 278 277 276 274 272 269 266 262 259 257 254 252 249 246
305 304 302 300 298 296 295 293 292 290 290 289 288 288 289 289 289 289 289 288 287 285 283 280 277 276 275 273 272 270 267 264 261 258 255 252 249 246
304 303 301 298 296 295 294 293 291 290 289 288 288 289 290 290 291 291 290 289 287 285 283 280 278 276 273 272 270 270 267 264 261 258 255 252 248 246
302 301 298 297 295 294 294 293 291 290 288 288 288 289 290 290 291 291 291 290 288 284 281 280 278 276 274 271 269 267 267 265 261 258 254 251 248 245
301 298 296 295 294 293 293 292 291 289 289 288 288 289 290 290 291 292 291 290 288 285 281 278 277 276 273 270 268 267 267 265 263 259 255 250 247 244
298 295 294 293 293 293 292 291 290 290 289 289 289 290 290 291 292 292 291 289 287 285 281 279 276 274 272 270 268 267 267 265 262 259 256 251 247 243
Height
5667 5662 5657 5651 5645 5639 5632 5626 5620 5617 5617 5613 5605 5598 5590 5584 5578 5572 5567 5561 5557 5552 5549 5545 5542 5539 5537 5535 5534 5534 5534 5534 5536 5538 5541 5543 5547 5550
5652 5647 5641 5635 5628 5622 5615 5608 5601 5595 5592 5591 5582 5574 5566 5560 5553 5547 5541 5536 5531 5526 5521 5518 5515 5512 5509 5508 5507 5506 5507 5507 5508 5511 5513 5516 5519 5523
5637 5631 5624 5617 5611 5604 5597 5590 5582 5574 5569 5569 5560 5550 5542 5534 5528 5521 5515 5509 5504 5499 5495 5491 5488 5486 5484 5482 5482 5481 5481 5482 5484 5486 5488 5491 5494 5498
5621 5614 5607 5600 5593 5585 5577 5570 5562 5553 5546 5543 5539 5529 5519 5510 5503 5496 5490 5484 5479 5475 5471 5468 5465 5463 5461 5460 5459 5459 5460 5461 5462 5464 5466 5469 5472 5474
5604 5597 5589 5581 5574 5566 5557 5549 5540 5532 5523 5517 5514 5506 5496 5486 5478 5472 5466 5461 5456 5452 5449 5446 5444 5442 5441 5440 5440 5441 5441 5442 5444 5445 5446 5448 5451 5454
5586 5578 5570 5562 5554 5545 5537 5528 5518 5510 5501 5493 5487 5481 5472 5463 5454 5449 5445 5440 5436 5432 5429 5427 5426 5425 5424 5424 5424 5424 5424 5425 5426 5428 5429 5431 5433 5436
5569 5560 5551 5542 5532 5523 5514 5505 5495 5486 5478 5469 5462 5456 5449 5441 5434 5428 5425 5422 5419 5415 5412 5410 5409 5409 5408 5408 5408 5408 5409 5410 5411 5412 5413 5415 5416 5419
5550 5541 5531 5521 5510 5500 5490 5481 5471 5462 5454 5446 5439 5433 5428 5420 5415 5410 5406 5404 5403 5401 5397 5397 5394 5395 5393 5393 5393 5394 5395 5396 5397 5397 5398 5399 5400 5402
5529 5520 5510 5499 5488 5478 5469 5460 5450 5439 5430 5423 5418 5413 5408 5403 5398 5395 5391 5388 5387 5385 5383 5384 5382 5381 5380 5380 5380 5380 5381 5382 5383 5383 5384 5384 5385 5386
5508 5497 5487 5477 5465 5455 5447 5439 5430 5421 5411 5405 5400 5396 5391 5387 5382 5379 5376 5374 5374 5372 5369 5370 5370 5369 5368 5367 5366 5367 5367 5368 5369 5369 5370 5370 5371 5372
5488 5476 5464 5455 5445 5433 5425 5418 5412 5404 5396 5389 5385 5380 5376 5372 5368 5365 5363 5361 5361 5360 5358 5357 5357 5357 5357 5356 5354 5354 5354 5355 5355 5356 5356 5357 5357 5360
5470 5457 5444 5433 5423 5413 5404 5398 5393 5388 5382 5377 5372 5367 5363 5359 5356 5353 5350 5348 5348 5348 5347 5345 5345 5344 5345 5344 5343 5342 5342 5342 5343 5343 5344 5344 5346 5349
5449 5438 5426 5414 5404 5395 5387 5380 5375 5370 5366 5362 5359 5355 5351 5348 5345 5342 5339 5337 5335 5335 5334 5333 5333 5332 5332 5333 5332 5331 5330 5331 5331 5332 5332 5333 5335 5338
5427 5417 5407 5396 5387 5379 5372 5366 5360 5356 5352 5348 5345 5342 5339 5336 5334 5331 5328 5326 5324 5323 5322 5321 5321 5321 5321 5321 5321 5320 5319 5320 5320 5321 5322 5323 5326 5328
5405 5396 5387 5379 5371 5364 5358 5352 5347 5343 5339 5336 5333 5331 5328 5325 5323 5320 5318 5316 5314 5313 5311 5310 5310 5310 5310 5310 5310 5309 5309 5310 5310 5311 5312 5314 5316 5319
5387 5379 5371 5363 5356 5350 5345 5339 5334 5330 5327 5325 5322 5320 5317 5315 5313 5310 5308 5306 5305 5303 5301 5300 5300 5300 5299 5299 5299 5299 5299 5300 5300 5301 5303 5304 5307 5310
5370 5363 5356 5349 5343 5337 5332 5327 5323 5319 5316 5314 5312 5310 5307 5305 5303 5301 5298 5297 5295 5294 5292 5290 5290 5289 5289 5290 5290 5289 5290 5290 5291 5292 5294 5296 5298 5301
5353 5347 5341 5335 5330 5325 5321 5317 5313 5310 5307 5304 5302 5300 5298 5296 5293 5291 5289 5287 5285 5284 5282 5281 5280 5280 5280 5280 5280 5280 5281 5281 5282 5284 5285 5287 5290 5292
5337 5332 5326 5321 5317 5313 5310 5306 5303 5300 5297 5295 5293 5291 5289 5287 5284 5282 5280 5278 5276 5274 5273 5272 5271 5271 5271 5271 5271 5272 5272 5273 5274 5275 5277 5279 5281 5284
5323 5318 5313 5309 5306 5302 5299 5296 5294 5291 5288 5286 5284 5282 5280 5277 5275 5273 5271 5269 5267 5265 5264 5263 5262 5262 5262 5263 5263 5263 5264 5265 5266 5267 5269 5271 5273 5276
5311 5306 5302 5298 5295 5292 5289 5287 5284 5282 5279 5277 5275 5273 5270 5268 5266 5264 5262 5260 5258 5256 5255 5254 5253 5253 5253 5254 5255 5255 5255 5256 5257 5259 5260 5262 5265 5268
5299 5295 5291 5288 5285 5282 5280 5277 5275 5272 5270 5268 5266 5264 5261 5259 5257 5255 5253 5251 5249 5248 5247 5246 5245 5245 5245 5245 5246 5246 5247 5247 5249 5250 5252 5254 5256 5259
5287 5284 5281 5278 5275 5273 5270 5268 5265 5263 5261 5259 5257 5255 5252 5250 5248 5246 5244 5242 5240 5239 5238 5237 5236 5236 5236 5237 5237 5238 5238 5239 5240 5242 5243 5245 5248 5251